Date String (YYYY-MM-DD hh:mm:ss) UTC,Instrument flags,Ambient pressure (hPa),Sample flow (lpm),Bypass flow (lpm),Sample temperature (°C),Ambient temperature (°C),ASC tube jacket temperature (°C),LED temperature (°C),Box temperature (°C),Sample RH (%),Span deviation,Mass concentration (μg/m³),Mass concentration (μg/m³),Mass concentration (μg/m³)
DateTimeUTC,F1_M11,P_M11,Q1_M11,Q2_M11,T1_M11,T2_M11,T3_M11,T4_M11,T5_M11,U1_M11,ZSPAN_M11,X0_M11,X2_M11,X1_M11
2022-08-03 07:00:00,,0826.5,4.99,0.00,30.9,28.6,00.0,39.2,32.0,32.9,0000.0,0006.19,0003.30,0002.56
2022-08-03 07:01:00,,0826.5,5.00,0.00,30.8,28.0,00.0,39.2,31.9,32.9,0000.0,0007.25,0003.31,0002.57
2022-08-03 07:02:00,,0826.5,5.01,0.00,30.8,27.7,00.0,39.1,31.7,33.1,0000.0,0007.31,0003.31,0002.58
2022-08-03 07:03:00,,0826.5,4.99,0.00,30.6,27.6,00.0,39.1,31.7,33.4,0000.0,0007.76,0003.36,0002.59
2022-08-03 07:04:00,,0826.5,5.01,0.00,30.5,27.6,00.0,39.1,31.7,32.9,0000.0,0007.85,0003.39,0002.59
2022-08-03 07:05:00,,0826.6,5.01,0.00,30.5,27.7,00.0,39.1,31.7,32.4,0000.0,0008.04,0003.40,0002.58
2022-08-03 07:06:00,,0826.5,4.99,0.00,30.4,27.9,00.0,39.1,31.7,31.8,0000.0,0008.10,0003.39,0002.55
2022-08-03 07:07:00,,0826.5,4.99,0.00,30.4,28.0,00.0,39.0,31.7,30.6,0000.0,0007.96,0003.32,0002.50
2022-08-03 07:08:00,,0826.6,5.01,0.00,30.4,28.2,00.0,39.0,31.8,33.5,0000.0,0007.74,0003.28,0002.47
2022-08-03 07:09:00,,0826.6,5.00,0.00,30.4,28.3,00.0,39.0,31.8,34.3,0000.0,0008.37,0003.24,0002.45
2022-08-03 07:10:00,,0826.7,5.00,0.00,30.4,28.4,00.0,39.0,31.9,33.2,0000.0,0008.25,0003.19,0002.41
2022-08-03 07:11:00,,0826.7,5.01,0.00,30.4,28.5,00.0,39.0,31.9,34.2,0000.0,0008.14,0003.18,0002.40
2022-08-03 07:12:00,,0826.7,5.00,0.00,30.4,28.6,00.0,39.0,31.9,34.6,0000.0,0007.48,0003.18,0002.39
2022-08-03 07:13:00,,0826.7,4.99,0.00,30.4,28.7,00.0,39.0,31.9,34.2,0000.0,0007.51,0003.21,0002.38
2022-08-03 07:14:00,,0826.7,4.99,0.00,30.4,28.7,00.0,39.0,32.0,34.2,0000.0,0006.98,0003.18,0002.38
2022-08-03 07:15:00,,0826.7,5.00,0.00,30.4,28.3,00.0,39.0,31.8,33.7,0000.0,0006.98,0003.20,0002.40
2022-08-03 07:16:00,,0826.7,5.00,0.00,30.3,27.7,00.0,39.0,31.7,32.3,0000.0,0008.04,0003.22,0002.42
2022-08-03 07:17:00,,0826.7,4.99,0.00,30.3,27.6,00.0,38.9,31.6,31.5,0000.0,0007.92,0003.21,0002.42
2022-08-03 07:18:00,,0826.7,5.01,0.00,30.2,27.6,00.0,38.9,31.6,31.4,0000.0,0007.96,0003.22,0002.43
2022-08-03 07:19:00,,0826.7,5.00,0.00,30.1,27.7,00.0,38.9,31.6,31.3,0000.0,0007.99,0003.24,0002.43
2022-08-03 07:20:00,,0826.7,5.01,0.00,30.1,27.8,00.0,38.9,31.6,30.8,0000.0,0007.12,0003.21,0002.40
2022-08-03 07:21:00,,0826.8,4.99,0.00,30.1,28.0,00.0,38.9,31.6,30.6,0000.0,0007.17,0003.21,0002.37
2022-08-03 07:22:00,,0826.7,5.00,0.00,30.1,28.1,00.0,38.8,31.7,30.9,0000.0,0007.71,0003.20,0002.34
2022-08-03 07:23:00,,0826.7,5.00,0.00,30.1,28.2,00.0,38.8,31.7,30.8,0000.0,0007.65,0003.16,0002.30
2022-08-03 07:24:00,,0826.8,4.99,0.00,30.1,28.3,00.0,38.8,31.7,31.1,0000.0,0007.56,0003.07,0002.26
2022-08-03 07:25:00,,0826.7,5.00,0.00,30.1,28.4,00.0,38.8,31.7,31.1,0000.0,0007.82,0002.99,0002.21
2022-08-03 07:26:00,,0826.7,5.00,0.00,30.1,28.5,00.0,38.8,31.8,30.4,0000.0,0007.71,0002.87,0002.14
2022-08-03 07:27:00,,0826.7,5.00,0.00,30.1,28.6,00.0,38.8,31.9,30.2,0000.0,0006.11,0002.71,0002.07
2022-08-03 07:28:00,,0826.7,5.00,0.00,30.1,28.6,00.0,38.8,31.9,30.3,0000.0,0006.05,0002.64,0002.02
2022-08-03 07:29:00,,0826.7,5.01,0.00,30.1,28.1,00.0,38.8,31.7,30.6,0000.0,0006.11,0002.60,0001.99
2022-08-03 07:30:00,,0826.7,5.00,0.00,30.0,27.4,00.0,38.8,31.5,30.7,0000.0,0007.42,0002.59,0001.97
2022-08-03 07:31:00,,0826.6,5.00,0.00,30.0,27.1,00.0,38.7,31.4,30.8,0000.0,0007.78,0002.60,0001.95
2022-08-03 07:32:00,,0826.7,5.00,0.00,29.8,27.0,00.0,38.7,31.3,30.9,0000.0,0007.63,0002.55,0001.93
2022-08-03 07:33:00,,0826.7,5.00,0.00,29.8,27.1,00.0,38.6,31.3,31.2,0000.0,0006.91,0002.46,0001.90
2022-08-03 07:34:00,,0826.6,5.00,0.00,29.7,27.3,00.0,38.6,31.3,31.4,0000.0,0007.25,0002.46,0001.89
2022-08-03 07:35:00,,0826.7,5.00,0.00,29.7,27.5,00.0,38.6,31.3,30.9,0000.0,0007.33,0002.47,0001.86
2022-08-03 07:36:00,,0826.7,5.00,0.00,29.7,27.6,00.0,38.6,31.4,30.7,0000.0,0006.70,0002.43,0001.83
2022-08-03 07:37:00,,0826.7,5.00,0.00,29.7,27.8,00.0,38.6,31.4,31.0,0000.0,0006.20,0002.38,0001.80
2022-08-03 07:38:00,,0826.7,5.00,0.00,29.7,28.0,00.0,38.5,31.5,30.9,0000.0,0006.36,0002.41,0001.79
2022-08-03 07:39:00,,0826.7,5.01,0.00,29.7,28.1,00.0,38.5,31.5,30.1,0000.0,0006.27,0002.40,0001.78
2022-08-03 07:40:00,,0826.7,5.00,0.00,29.7,28.2,00.0,38.5,31.5,29.2,0000.0,0006.26,0002.39,0001.74
2022-08-03 07:41:00,,0826.7,5.00,0.00,29.7,28.3,00.0,38.5,31.6,28.5,0000.0,0004.85,0002.32,0001.70
2022-08-03 07:42:00,,0826.7,5.00,0.00,29.8,28.4,00.0,38.5,31.6,28.3,0000.0,0004.10,0002.23,0001.66
2022-08-03 07:43:00,,0826.6,5.01,0.00,29.8,28.5,00.0,38.6,31.7,28.1,0000.0,0004.08,0002.23,0001.64
2022-08-03 07:44:00,,0826.6,4.99,0.00,29.8,28.6,00.0,38.6,31.7,28.0,0000.0,0003.92,0002.17,0001.61
2022-08-03 07:45:00,,0826.6,5.00,0.00,29.8,28.6,00.0,38.6,31.7,27.7,0000.0,0003.44,0002.07,0001.57
2022-08-03 07:46:00,,0826.7,5.00,0.00,29.9,28.7,00.0,38.6,31.8,27.7,0000.0,0003.18,0002.00,0001.55
2022-08-03 07:47:00,,0826.7,5.00,0.00,29.9,28.7,00.0,38.6,31.8,27.6,0000.0,0003.10,0001.96,0001.52
2022-08-03 07:48:00,,0826.7,4.99,0.00,29.9,28.3,00.0,38.6,31.6,27.6,0000.0,0003.03,0001.91,0001.50
2022-08-03 07:49:00,,0826.7,5.01,0.00,29.8,27.5,00.0,38.6,31.4,27.6,0000.0,0002.80,0001.84,0001.49
2022-08-03 07:50:00,,0826.7,5.00,0.00,29.8,27.1,00.0,38.5,31.4,27.5,0000.0,0002.72,0001.80,0001.47
2022-08-03 07:51:00,,0826.7,4.99,0.00,29.6,27.0,00.0,38.5,31.2,27.7,0000.0,0002.51,0001.75,0001.47
2022-08-03 07:52:00,,0826.6,5.00,0.00,29.6,27.1,00.0,38.5,31.2,28.8,0000.0,0002.31,0001.73,0001.49
2022-08-03 07:53:00,,0826.6,5.01,0.00,29.5,27.3,00.0,38.4,31.2,28.5,0000.0,0002.27,0001.75,0001.53
2022-08-03 07:54:00,,0826.6,4.99,0.00,29.5,27.4,00.0,38.4,31.2,29.4,0000.0,0002.28,0001.78,0001.56
2022-08-03 07:55:00,,0826.5,5.01,0.00,29.5,27.6,00.0,38.4,31.3,28.9,0000.0,0002.38,0001.85,0001.61
2022-08-03 07:56:00,,0826.5,4.99,0.00,29.5,27.8,00.0,38.4,31.3,28.6,0000.0,0002.44,0001.91,0001.67
2022-08-03 07:57:00,,0826.6,5.01,0.00,29.5,27.9,00.0,38.4,31.4,28.7,0000.0,0002.55,0001.99,0001.73
2022-08-03 07:58:00,,0826.7,5.00,0.00,29.5,28.1,00.0,38.4,31.4,28.7,0000.0,0002.66,0002.06,0001.79
2022-08-03 07:59:00,,0826.7,5.01,0.00,29.6,28.2,00.0,38.4,31.4,28.8,0000.0,0002.64,0002.10,0001.83
